Gauley at Summersville (cfs) [ USA-WVR ]

Edit Gauge

Current Conditions

Reading of "n/a" = frozen gauge or gauge error.
Reading Trend Type Updated
333 cfs 0 cfs/hr Flow 01h22m

Station Description

AW Gauge ID: 8515
Source: virtual
Station: 8515
Enabled yes
Description:StreamTeam Member: Matt Muir The virtual Gauley gauge is based on the rating table published by the USGS in Oct 2003. Funding to update the rating table is no longer available. Discharge values calculated by this virtual gauge are thus calculated based on channel bed morphology as of 2003.
Calculation:$g = $gauge[1434]->getValue(GMETRIC_STAGE,0); if ($g >= 8.9) { $x=(-0.0344*pow($g,5))+(2.6808*pow($g,4))-(77.748*pow($g,3))+(1150.7*pow($g,2))-(7873.3*$g)+19890; } elseif ($g >= 7.0) { $x=(69.822*pow($g,2))-(656.23*$g)+1354.5; } elseif ($g >= 6.5) { $x=(171.43*pow($g,2))-(2104.1*$g)+6474; } else { $x=40; } $flow = $x;
Data is courtesy of AW's Stream Team program. This data is calculated based on other gauges and information provided by the Stream Team. This data, and any river data, should be used with caution.

Information

Flow

Gauge History

Times listed in GMT 24h, ET and PT hours provided for convenience Graphs in GMT. Readings of "n/a" constitute a frozen gauge or gauge error.
Reading Updated (GMT) Eastern Pacific Comment
333.23 10/24/2014 15:25:52 Oct 24 11:25 am Oct 24 8:25 am
333.23 10/24/2014 14:26:08 Oct 24 10:26 am Oct 24 7:26 am
333.23 10/24/2014 13:26:24 Oct 24 09:26 am Oct 24 6:26 am
333.23 10/24/2014 12:26:40 Oct 24 08:26 am Oct 24 5:26 am
329.42 10/24/2014 11:26:56 Oct 24 07:26 am Oct 24 4:26 am
333.23 10/24/2014 10:27:12 Oct 24 06:27 am Oct 24 3:27 am
333.23 10/24/2014 09:27:28 Oct 24 05:27 am Oct 24 2:27 am
333.23 10/24/2014 08:27:44 Oct 24 04:27 am Oct 24 1:27 am
333.23 10/24/2014 07:25:52 Oct 24 03:25 am Oct 24 12:25 am
329.42 10/24/2014 06:26:08 Oct 24 02:26 am Oct 23 11:26 pm
333.23 10/24/2014 05:26:24 Oct 24 01:26 am Oct 23 10:26 pm
333.23 10/24/2014 04:26:40 Oct 24 12:26 am Oct 23 9:26 pm
333.23 10/24/2014 02:27:12 Oct 23 10:27 pm Oct 23 7:27 pm
333.23 10/24/2014 01:27:28 Oct 23 09:27 pm Oct 23 6:27 pm
333.23 10/23/2014 23:25:52 Oct 23 07:25 pm Oct 23 4:25 pm
333.23 10/23/2014 22:26:08 Oct 23 06:26 pm Oct 23 3:26 pm
333.23 10/23/2014 21:26:24 Oct 23 05:26 pm Oct 23 2:26 pm
329.42 10/23/2014 20:26:40 Oct 23 04:26 pm Oct 23 1:26 pm
333.23 10/23/2014 19:26:56 Oct 23 03:26 pm Oct 23 12:26 pm
329.42 10/23/2014 18:27:12 Oct 23 02:27 pm Oct 23 11:27 am
329.42 10/23/2014 17:27:28 Oct 23 01:27 pm Oct 23 10:27 am
333.23 10/23/2014 16:27:44 Oct 23 12:27 pm Oct 23 9:27 am
333.23 10/23/2014 15:25:52 Oct 23 11:25 am Oct 23 8:25 am
329.42 10/23/2014 14:26:08 Oct 23 10:26 am Oct 23 7:26 am
333.23 10/23/2014 13:26:24 Oct 23 09:26 am Oct 23 6:26 am
329.42 10/23/2014 12:26:40 Oct 23 08:26 am Oct 23 5:26 am
329.42 10/23/2014 11:26:56 Oct 23 07:26 am Oct 23 4:26 am
329.42 10/23/2014 10:27:12 Oct 23 06:27 am Oct 23 3:27 am
329.42 10/23/2014 09:27:28 Oct 23 05:27 am Oct 23 2:27 am
329.42 10/23/2014 08:27:44 Oct 23 04:27 am Oct 23 1:27 am
329.42 10/23/2014 07:25:52 Oct 23 03:25 am Oct 23 12:25 am
329.42 10/23/2014 06:26:08 Oct 23 02:26 am Oct 22 11:26 pm
329.42 10/23/2014 05:26:24 Oct 23 01:26 am Oct 22 10:26 pm
333.23 10/23/2014 04:26:40 Oct 23 12:26 am Oct 22 9:26 pm
329.42 10/23/2014 01:27:28 Oct 22 09:27 pm Oct 22 6:27 pm
329.42 10/22/2014 23:25:52 Oct 22 07:25 pm Oct 22 4:25 pm
329.42 10/22/2014 22:26:08 Oct 22 06:26 pm Oct 22 3:26 pm
329.42 10/22/2014 21:26:24 Oct 22 05:26 pm Oct 22 2:26 pm
329.42 10/22/2014 20:26:40 Oct 22 04:26 pm Oct 22 1:26 pm
329.42 10/22/2014 19:26:56 Oct 22 03:26 pm Oct 22 12:26 pm
333.23 10/22/2014 18:27:12 Oct 22 02:27 pm Oct 22 11:27 am
329.42 10/22/2014 17:27:28 Oct 22 01:27 pm Oct 22 10:27 am
329.42 10/22/2014 16:27:44 Oct 22 12:27 pm Oct 22 9:27 am
329.42 10/22/2014 15:25:52 Oct 22 11:25 am Oct 22 8:25 am
329.42 10/22/2014 14:26:08 Oct 22 10:26 am Oct 22 7:26 am
329.42 10/22/2014 13:26:24 Oct 22 09:26 am Oct 22 6:26 am
329.42 10/22/2014 12:26:40 Oct 22 08:26 am Oct 22 5:26 am
329.42 10/22/2014 11:26:56 Oct 22 07:26 am Oct 22 4:26 am
329.42 10/22/2014 10:27:12 Oct 22 06:27 am Oct 22 3:27 am
329.42 10/22/2014 09:27:28 Oct 22 05:27 am Oct 22 2:27 am
325.63 10/22/2014 08:27:44 Oct 22 04:27 am Oct 22 1:27 am
329.42 10/22/2014 07:25:52 Oct 22 03:25 am Oct 22 12:25 am
329.42 10/22/2014 06:26:08 Oct 22 02:26 am Oct 21 11:26 pm
325.63 10/22/2014 05:26:24 Oct 22 01:26 am Oct 21 10:26 pm
329.42 10/22/2014 04:26:40 Oct 22 12:26 am Oct 21 9:26 pm
329.42 10/22/2014 02:27:12 Oct 21 10:27 pm Oct 21 7:27 pm
329.42 10/21/2014 23:25:52 Oct 21 07:25 pm Oct 21 4:25 pm
329.42 10/21/2014 22:26:08 Oct 21 06:26 pm Oct 21 3:26 pm
333.23 10/21/2014 21:26:24 Oct 21 05:26 pm Oct 21 2:26 pm
329.42 10/21/2014 20:26:40 Oct 21 04:26 pm Oct 21 1:26 pm
329.42 10/21/2014 19:26:56 Oct 21 03:26 pm Oct 21 12:26 pm
321.85 10/21/2014 18:27:12 Oct 21 02:27 pm Oct 21 11:27 am
321.85 10/21/2014 17:27:28 Oct 21 01:27 pm Oct 21 10:27 am
321.85 10/21/2014 16:27:44 Oct 21 12:27 pm Oct 21 9:27 am
318.09 10/21/2014 15:25:52 Oct 21 11:25 am Oct 21 8:25 am
310.60 10/21/2014 14:26:08 Oct 21 10:26 am Oct 21 7:26 am
310.60 10/21/2014 13:26:24 Oct 21 09:26 am Oct 21 6:26 am
310.60 10/21/2014 12:26:40 Oct 21 08:26 am Oct 21 5:26 am
310.60 10/21/2014 11:26:56 Oct 21 07:26 am Oct 21 4:26 am
310.60 10/21/2014 10:27:12 Oct 21 06:27 am Oct 21 3:27 am
306.88 10/21/2014 09:27:28 Oct 21 05:27 am Oct 21 2:27 am
310.60 10/21/2014 08:27:44 Oct 21 04:27 am Oct 21 1:27 am
310.60 10/21/2014 07:25:52 Oct 21 03:25 am Oct 21 12:25 am
310.60 10/21/2014 06:26:08 Oct 21 02:26 am Oct 20 11:26 pm
310.60 10/21/2014 04:26:40 Oct 21 12:26 am Oct 20 9:26 pm
310.60 10/21/2014 03:26:56 Oct 20 11:26 pm Oct 20 8:26 pm
310.60 10/21/2014 02:27:12 Oct 20 10:27 pm Oct 20 7:27 pm
310.60 10/21/2014 00:27:44 Oct 20 08:27 pm Oct 20 5:27 pm
306.88 10/20/2014 23:25:52 Oct 20 07:25 pm Oct 20 4:25 pm
310.60 10/20/2014 22:26:08 Oct 20 06:26 pm Oct 20 3:26 pm
310.60 10/20/2014 21:26:24 Oct 20 05:26 pm Oct 20 2:26 pm
310.60 10/20/2014 20:26:40 Oct 20 04:26 pm Oct 20 1:26 pm
344.73 10/20/2014 19:26:56 Oct 20 03:26 pm Oct 20 12:26 pm
360.26 10/20/2014 18:27:12 Oct 20 02:27 pm Oct 20 11:27 am
376.02 10/20/2014 17:27:28 Oct 20 01:27 pm Oct 20 10:27 am
479.55 10/20/2014 16:27:44 Oct 20 12:27 pm Oct 20 9:27 am
658.50 10/20/2014 15:25:52 Oct 20 11:25 am Oct 20 8:25 am
663.36 10/20/2014 14:26:08 Oct 20 10:26 am Oct 20 7:26 am
663.36 10/20/2014 13:26:24 Oct 20 09:26 am Oct 20 6:26 am
663.36 10/20/2014 12:26:40 Oct 20 08:26 am Oct 20 5:26 am
668.25 10/20/2014 11:26:56 Oct 20 07:26 am Oct 20 4:26 am
998.17 10/20/2014 10:27:12 Oct 20 06:27 am Oct 20 3:27 am
1451.29 10/20/2014 09:27:28 Oct 20 05:27 am Oct 20 2:27 am
2764.76 10/19/2014 23:25:52 Oct 19 07:25 pm Oct 19 4:25 pm
2774.53 10/19/2014 22:26:08 Oct 19 06:26 pm Oct 19 3:26 pm
2764.76 10/19/2014 21:26:24 Oct 19 05:26 pm Oct 19 2:26 pm
2794.13 10/19/2014 20:26:40 Oct 19 04:26 pm Oct 19 1:26 pm
2784.32 10/19/2014 19:26:56 Oct 19 03:26 pm Oct 19 12:26 pm
2764.76 10/19/2014 18:27:12 Oct 19 02:27 pm Oct 19 11:27 am
2755.00 10/19/2014 17:27:28 Oct 19 01:27 pm Oct 19 10:27 am
2774.53 10/19/2014 16:27:44 Oct 19 12:27 pm Oct 19 9:27 am
2764.76 10/19/2014 15:25:52 Oct 19 11:25 am Oct 19 8:25 am
2745.25 10/19/2014 14:26:08 Oct 19 10:26 am Oct 19 7:26 am
2784.32 10/19/2014 13:26:24 Oct 19 09:26 am Oct 19 6:26 am
2774.53 10/19/2014 12:26:40 Oct 19 08:26 am Oct 19 5:26 am
2774.53 10/19/2014 10:27:12 Oct 19 06:27 am Oct 19 3:27 am
2764.76 10/19/2014 09:27:28 Oct 19 05:27 am Oct 19 2:27 am
2745.25 10/19/2014 07:25:52 Oct 19 03:25 am Oct 19 12:25 am
2735.52 10/19/2014 06:26:08 Oct 19 02:26 am Oct 18 11:26 pm
2764.76 10/19/2014 05:26:24 Oct 19 01:26 am Oct 18 10:26 pm
2755.00 10/19/2014 04:26:40 Oct 19 12:26 am Oct 18 9:26 pm
2764.76 10/19/2014 02:27:12 Oct 18 10:27 pm Oct 18 7:27 pm
2745.25 10/19/2014 01:27:28 Oct 18 09:27 pm Oct 18 6:27 pm
2755.00 10/18/2014 23:25:52 Oct 18 07:25 pm Oct 18 4:25 pm
2755.00 10/18/2014 22:26:08 Oct 18 06:26 pm Oct 18 3:26 pm
2764.76 10/18/2014 21:26:24 Oct 18 05:26 pm Oct 18 2:26 pm
2735.52 10/18/2014 20:26:40 Oct 18 04:26 pm Oct 18 1:26 pm
2745.25 10/18/2014 19:26:56 Oct 18 03:26 pm Oct 18 12:26 pm
2764.76 10/18/2014 18:27:12 Oct 18 02:27 pm Oct 18 11:27 am
2735.52 10/18/2014 17:27:28 Oct 18 01:27 pm Oct 18 10:27 am
2735.52 10/18/2014 16:27:44 Oct 18 12:27 pm Oct 18 9:27 am
2755.00 10/18/2014 15:25:52 Oct 18 11:25 am Oct 18 8:25 am
2745.25 10/18/2014 14:26:08 Oct 18 10:26 am Oct 18 7:26 am
2784.32 10/18/2014 13:26:24 Oct 18 09:26 am Oct 18 6:26 am
2774.53 10/18/2014 12:26:40 Oct 18 08:26 am Oct 18 5:26 am
2774.53 10/18/2014 11:26:56 Oct 18 07:26 am Oct 18 4:26 am
2784.32 10/18/2014 10:27:12 Oct 18 06:27 am Oct 18 3:27 am
2774.53 10/18/2014 09:27:28 Oct 18 05:27 am Oct 18 2:27 am
2774.53 10/18/2014 08:27:44 Oct 18 04:27 am Oct 18 1:27 am
2774.53 10/18/2014 07:25:52 Oct 18 03:25 am Oct 18 12:25 am
2764.76 10/18/2014 06:26:08 Oct 18 02:26 am Oct 17 11:26 pm
2784.32 10/18/2014 05:26:24 Oct 18 01:26 am Oct 17 10:26 pm
2764.76 10/18/2014 04:26:40 Oct 18 12:26 am Oct 17 9:26 pm
1749.86 10/18/2014 01:27:28 Oct 17 09:27 pm Oct 17 6:27 pm
663.36 10/17/2014 23:25:52 Oct 17 07:25 pm Oct 17 4:25 pm
663.36 10/17/2014 22:26:08 Oct 17 06:26 pm Oct 17 3:26 pm
668.25 10/17/2014 19:26:56 Oct 17 03:26 pm Oct 17 12:26 pm
668.25 10/17/2014 17:27:28 Oct 17 01:27 pm Oct 17 10:27 am
687.91 10/17/2014 16:27:44 Oct 17 12:27 pm Oct 17 9:27 am
668.25 10/17/2014 15:25:52 Oct 17 11:25 am Oct 17 8:25 am
678.05 10/17/2014 13:26:24 Oct 17 09:26 am Oct 17 6:26 am
663.36 10/17/2014 11:26:56 Oct 17 07:26 am Oct 17 4:26 am
913.43 10/17/2014 10:27:12 Oct 17 06:27 am Oct 17 3:27 am
1733.91 10/17/2014 09:27:28 Oct 17 05:27 am Oct 17 2:27 am
2322.02 10/17/2014 07:25:52 Oct 17 03:25 am Oct 17 12:25 am
3105.32 10/17/2014 02:27:12 Oct 16 10:27 pm Oct 16 7:27 pm
3105.32 10/17/2014 01:27:28 Oct 16 09:27 pm Oct 16 6:27 pm
2833.50 10/16/2014 23:25:52 Oct 16 07:25 pm Oct 16 4:25 pm
2843.37 10/16/2014 22:26:08 Oct 16 06:26 pm Oct 16 3:26 pm
2833.50 10/16/2014 21:26:24 Oct 16 05:26 pm Oct 16 2:26 pm
2784.32 10/16/2014 20:26:40 Oct 16 04:26 pm Oct 16 1:26 pm
1863.42 10/16/2014 19:26:56 Oct 16 03:26 pm Oct 16 12:26 pm
1180.70 10/16/2014 18:27:12 Oct 16 02:27 pm Oct 16 11:27 am
1066.00 10/16/2014 17:27:28 Oct 16 01:27 pm Oct 16 10:27 am
658.50 10/16/2014 16:27:44 Oct 16 12:27 pm Oct 16 9:27 am
658.50 10/16/2014 15:25:52 Oct 16 11:25 am Oct 16 8:25 am
653.64 10/16/2014 14:26:08 Oct 16 10:26 am Oct 16 7:26 am
653.64 10/16/2014 13:26:24 Oct 16 09:26 am Oct 16 6:26 am
663.36 10/16/2014 11:26:56 Oct 16 07:26 am Oct 16 4:26 am
2196.59 10/16/2014 07:25:52 Oct 16 03:25 am Oct 16 12:25 am
2953.00 10/16/2014 06:26:08 Oct 16 02:26 am Oct 15 11:26 pm
2953.00 10/16/2014 05:26:24 Oct 16 01:26 am Oct 15 10:26 pm
2942.96 10/16/2014 04:26:40 Oct 16 12:26 am Oct 15 9:26 pm
2953.00 10/16/2014 01:27:28 Oct 15 09:27 pm Oct 15 6:27 pm
2963.05 10/15/2014 23:25:52 Oct 15 07:25 pm Oct 15 4:25 pm
2953.00 10/15/2014 22:26:08 Oct 15 06:26 pm Oct 15 3:26 pm
2953.00 10/15/2014 21:26:24 Oct 15 05:26 pm Oct 15 2:26 pm
2963.05 10/15/2014 20:26:40 Oct 15 04:26 pm Oct 15 1:26 pm
2902.95 10/15/2014 19:26:56 Oct 15 03:26 pm Oct 15 12:26 pm
1896.47 10/15/2014 18:27:12 Oct 15 02:27 pm Oct 15 11:27 am
1154.64 10/15/2014 17:27:28 Oct 15 01:27 pm Oct 15 10:27 am
653.64 10/15/2014 16:27:44 Oct 15 12:27 pm Oct 15 9:27 am
658.50 10/15/2014 15:25:52 Oct 15 11:25 am Oct 15 8:25 am
653.64 10/15/2014 14:26:08 Oct 15 10:26 am Oct 15 7:26 am
653.64 10/15/2014 13:26:24 Oct 15 09:26 am Oct 15 6:26 am
653.64 10/15/2014 12:26:40 Oct 15 08:26 am Oct 15 5:26 am
653.64 10/15/2014 11:26:56 Oct 15 07:26 am Oct 15 4:26 am
653.64 10/15/2014 10:27:12 Oct 15 06:27 am Oct 15 3:27 am
658.50 10/15/2014 09:27:28 Oct 15 05:27 am Oct 15 2:27 am
648.80 10/15/2014 08:27:44 Oct 15 04:27 am Oct 15 1:27 am
653.64 10/15/2014 07:25:52 Oct 15 03:25 am Oct 15 12:25 am
653.64 10/15/2014 06:26:08 Oct 15 02:26 am Oct 14 11:26 pm
653.64 10/15/2014 05:26:24 Oct 15 01:26 am Oct 14 10:26 pm
653.64 10/15/2014 04:26:40 Oct 15 12:26 am Oct 14 9:26 pm
648.80 10/15/2014 01:27:28 Oct 14 09:27 pm Oct 14 6:27 pm
653.64 10/14/2014 23:25:52 Oct 14 07:25 pm Oct 14 4:25 pm
559.50 10/14/2014 22:26:08 Oct 14 06:26 pm Oct 14 3:26 pm
643.98 10/14/2014 21:26:24 Oct 14 05:26 pm Oct 14 2:26 pm
648.80 10/14/2014 20:26:40 Oct 14 04:26 pm Oct 14 1:26 pm
648.80 10/14/2014 19:26:56 Oct 14 03:26 pm Oct 14 12:26 pm
396.03 10/14/2014 18:27:12 Oct 14 02:27 pm Oct 14 11:27 am
400.07 10/14/2014 17:27:28 Oct 14 01:27 pm Oct 14 10:27 am
420.50 10/14/2014 16:27:44 Oct 14 12:27 pm Oct 14 9:27 am
673.14 10/14/2014 15:25:52 Oct 14 11:25 am Oct 14 8:25 am
668.25 10/14/2014 14:26:08 Oct 14 10:26 am Oct 14 7:26 am
673.14 10/14/2014 13:26:24 Oct 14 09:26 am Oct 14 6:26 am
673.14 10/14/2014 12:26:40 Oct 14 08:26 am Oct 14 5:26 am
673.14 10/14/2014 11:26:56 Oct 14 07:26 am Oct 14 4:26 am
673.14 10/14/2014 10:27:12 Oct 14 06:27 am Oct 14 3:27 am
673.14 10/14/2014 09:27:28 Oct 14 05:27 am Oct 14 2:27 am
678.05 10/14/2014 08:27:44 Oct 14 04:27 am Oct 14 1:27 am
678.05 10/14/2014 07:25:52 Oct 14 03:25 am Oct 14 12:25 am
678.05 10/14/2014 06:26:08 Oct 14 02:26 am Oct 13 11:26 pm
673.14 10/14/2014 05:26:24 Oct 14 01:26 am Oct 13 10:26 pm
678.05 10/14/2014 04:26:40 Oct 14 12:26 am Oct 13 9:26 pm
673.14 10/13/2014 23:25:52 Oct 13 07:25 pm Oct 13 4:25 pm
678.05 10/13/2014 22:26:08 Oct 13 06:26 pm Oct 13 3:26 pm
673.14 10/13/2014 21:26:24 Oct 13 05:26 pm Oct 13 2:26 pm
673.14 10/13/2014 20:26:40 Oct 13 04:26 pm Oct 13 1:26 pm
673.14 10/13/2014 19:26:56 Oct 13 03:26 pm Oct 13 12:26 pm
678.05 10/13/2014 18:27:12 Oct 13 02:27 pm Oct 13 11:27 am
673.14 10/13/2014 17:27:28 Oct 13 01:27 pm Oct 13 10:27 am
673.14 10/13/2014 16:27:44 Oct 13 12:27 pm Oct 13 9:27 am
673.14 10/13/2014 15:25:52 Oct 13 11:25 am Oct 13 8:25 am
678.05 10/13/2014 14:26:08 Oct 13 10:26 am Oct 13 7:26 am
673.14 10/13/2014 13:26:24 Oct 13 09:26 am Oct 13 6:26 am
673.14 10/13/2014 12:26:40 Oct 13 08:26 am Oct 13 5:26 am
673.14 10/13/2014 11:26:56 Oct 13 07:26 am Oct 13 4:26 am
668.25 10/13/2014 10:27:12 Oct 13 06:27 am Oct 13 3:27 am
678.05 10/13/2014 09:27:28 Oct 13 05:27 am Oct 13 2:27 am
678.05 10/13/2014 08:27:44 Oct 13 04:27 am Oct 13 1:27 am
678.05 10/13/2014 07:25:52 Oct 13 03:25 am Oct 13 12:25 am
678.05 10/13/2014 06:26:08 Oct 13 02:26 am Oct 12 11:26 pm
682.97 10/13/2014 05:26:24 Oct 13 01:26 am Oct 12 10:26 pm
673.14 10/13/2014 04:26:40 Oct 13 12:26 am Oct 12 9:26 pm
678.05 10/13/2014 01:27:28 Oct 12 09:27 pm Oct 12 6:27 pm
673.14 10/12/2014 23:25:52 Oct 12 07:25 pm Oct 12 4:25 pm
678.05 10/12/2014 22:26:08 Oct 12 06:26 pm Oct 12 3:26 pm
837.17 10/12/2014 21:26:24 Oct 12 05:26 pm Oct 12 2:26 pm
975.27 10/12/2014 20:26:40 Oct 12 04:26 pm Oct 12 1:26 pm
1517.80 10/12/2014 19:26:56 Oct 12 03:26 pm Oct 12 12:26 pm
2065.58 10/12/2014 18:27:12 Oct 12 02:27 pm Oct 12 11:27 am
2735.52 10/12/2014 17:27:28 Oct 12 01:27 pm Oct 12 10:27 am
2725.80 10/12/2014 16:27:44 Oct 12 12:27 pm Oct 12 9:27 am
2725.80 10/12/2014 15:25:52 Oct 12 11:25 am Oct 12 8:25 am
2725.80 10/12/2014 14:26:08 Oct 12 10:26 am Oct 12 7:26 am
2725.80 10/12/2014 13:26:24 Oct 12 09:26 am Oct 12 6:26 am
2716.10 10/12/2014 12:26:40 Oct 12 08:26 am Oct 12 5:26 am
2725.80 10/12/2014 11:26:56 Oct 12 07:26 am Oct 12 4:26 am
2687.08 10/12/2014 10:27:12 Oct 12 06:27 am Oct 12 3:27 am
1733.91 10/12/2014 09:27:28 Oct 12 05:27 am Oct 12 2:27 am
1038.79 10/12/2014 08:27:44 Oct 12 04:27 am Oct 12 1:27 am
732.98 10/12/2014 07:25:52 Oct 12 03:25 am Oct 12 12:25 am
732.98 10/12/2014 06:26:08 Oct 12 02:26 am Oct 11 11:26 pm
732.98 10/12/2014 05:26:24 Oct 12 01:26 am Oct 11 10:26 pm
732.98 10/12/2014 04:26:40 Oct 12 12:26 am Oct 11 9:26 pm
732.98 10/12/2014 03:26:56 Oct 11 11:26 pm Oct 11 8:26 pm
738.05 10/12/2014 01:27:28 Oct 11 09:27 pm Oct 11 6:27 pm
738.05 10/11/2014 23:25:52 Oct 11 07:25 pm Oct 11 4:25 pm
732.98 10/11/2014 22:26:08 Oct 11 06:26 pm Oct 11 3:26 pm
743.14 10/11/2014 21:26:24 Oct 11 05:26 pm Oct 11 2:26 pm
1072.19 10/11/2014 20:26:40 Oct 11 04:26 pm Oct 11 1:26 pm
1510.34 10/11/2014 19:26:56 Oct 11 03:26 pm Oct 11 12:26 pm
2022.70 10/11/2014 18:27:12 Oct 11 02:27 pm Oct 11 11:27 am
2687.08 10/11/2014 17:27:28 Oct 11 01:27 pm Oct 11 10:27 am
2687.08 10/11/2014 16:27:44 Oct 11 12:27 pm Oct 11 9:27 am
2696.74 10/11/2014 15:25:52 Oct 11 11:25 am Oct 11 8:25 am
2706.41 10/11/2014 14:26:08 Oct 11 10:26 am Oct 11 7:26 am
2706.41 10/11/2014 13:26:24 Oct 11 09:26 am Oct 11 6:26 am
2677.44 10/11/2014 12:26:40 Oct 11 08:26 am Oct 11 5:26 am
2581.82 10/11/2014 11:26:56 Oct 11 07:26 am Oct 11 4:26 am
2543.98 10/11/2014 10:27:12 Oct 11 06:27 am Oct 11 3:27 am
1855.20 10/11/2014 09:27:28 Oct 11 05:27 am Oct 11 2:27 am
1059.82 10/11/2014 08:27:44 Oct 11 04:27 am Oct 11 1:27 am
678.05 10/11/2014 07:25:52 Oct 11 03:25 am Oct 11 12:25 am
682.97 10/11/2014 06:26:08 Oct 11 02:26 am Oct 10 11:26 pm
678.05 10/11/2014 05:26:24 Oct 11 01:26 am Oct 10 10:26 pm
678.05 10/11/2014 04:26:40 Oct 11 12:26 am Oct 10 9:26 pm
673.14 10/11/2014 01:27:28 Oct 10 09:27 pm Oct 10 6:27 pm
678.05 10/10/2014 23:25:52 Oct 10 07:25 pm Oct 10 4:25 pm
673.14 10/10/2014 22:26:08 Oct 10 06:26 pm Oct 10 3:26 pm
678.05 10/10/2014 21:26:24 Oct 10 05:26 pm Oct 10 2:26 pm
673.14 10/10/2014 20:26:40 Oct 10 04:26 pm Oct 10 1:26 pm
673.14 10/10/2014 19:26:56 Oct 10 03:26 pm Oct 10 12:26 pm
673.14 10/10/2014 18:27:12 Oct 10 02:27 pm Oct 10 11:27 am
678.05 10/10/2014 17:27:28 Oct 10 01:27 pm Oct 10 10:27 am
673.14 10/10/2014 16:27:44 Oct 10 12:27 pm Oct 10 9:27 am
673.14 10/10/2014 15:25:52 Oct 10 11:25 am Oct 10 8:25 am
673.14 10/10/2014 14:26:08 Oct 10 10:26 am Oct 10 7:26 am
673.14 10/10/2014 13:26:24 Oct 10 09:26 am Oct 10 6:26 am
673.14 10/10/2014 12:26:40 Oct 10 08:26 am Oct 10 5:26 am
678.05 10/10/2014 11:26:56 Oct 10 07:26 am Oct 10 4:26 am
673.14 10/10/2014 10:27:12 Oct 10 06:27 am Oct 10 3:27 am
673.14 10/10/2014 09:27:28 Oct 10 05:27 am Oct 10 2:27 am
673.14 10/10/2014 08:27:44 Oct 10 04:27 am Oct 10 1:27 am
673.14 10/10/2014 07:25:52 Oct 10 03:25 am Oct 10 12:25 am
673.14 10/10/2014 06:26:08 Oct 10 02:26 am Oct 9 11:26 pm
673.14 10/10/2014 05:26:24 Oct 10 01:26 am Oct 9 10:26 pm
673.14 10/10/2014 04:26:40 Oct 10 12:26 am Oct 9 9:26 pm
673.14 10/09/2014 23:25:52 Oct 9 07:25 pm Oct 9 4:25 pm
673.14 10/09/2014 22:26:08 Oct 9 06:26 pm Oct 9 3:26 pm
668.25 10/09/2014 21:26:24 Oct 9 05:26 pm Oct 9 2:26 pm
668.25 10/09/2014 20:26:40 Oct 9 04:26 pm Oct 9 1:26 pm
678.05 10/09/2014 19:26:56 Oct 9 03:26 pm Oct 9 12:26 pm
668.25 10/09/2014 18:27:12 Oct 9 02:27 pm Oct 9 11:27 am
658.50 10/09/2014 17:27:28 Oct 9 01:27 pm Oct 9 10:27 am
980.97 10/09/2014 16:27:44 Oct 9 12:27 pm Oct 9 9:27 am
986.69 10/09/2014 15:25:52 Oct 9 11:25 am Oct 9 8:25 am
980.97 10/09/2014 14:26:08 Oct 9 10:26 am Oct 9 7:26 am
986.69 10/09/2014 13:26:24 Oct 9 09:26 am Oct 9 6:26 am

Report - Reports of Related Gauges

Reports give the public a chance to report on river conditions throughout the country as well as log the history of a river.

Reports

When River/Gauge Subject Level Reporter
5y152d04h51m Gauley at Summersville (cfs) [WV] Account of 05/26/09 245 cfs Ryan Groth

Linked Reaches

Click a heading to sort. Hover over a heading for help.
River Name/Section Class Level running? Updated
Gauley [WV] 7 (Upper). Summersville Dam to Mason Branch IV-V 333 cfs
0 cfs/hr
L9-
Below Recom.
01h22m
Gauley [WV] 9 (Lower). Bucklick Branch to Swiss III-IV(V) 1130 cfs
0 cfs/hr
R0-
Lower Runnable
00h48m

Associated Gauges

Disclaimer Data Sources

GAULEY RIVER BELOW SUMMERSVILLE DAM, WV (AW#1434)

7.43 ft 01h20m